Regional Weather Roundup
Issued by NWS

Home | Current Version | Previous Version | Text Only | Print | Product List | Glossary On
Versions: 1 2 3 4 5 6 7 8 9 10 11 12 13 14 15 16 17 18 19 20 21 22 23 24 25 26 27 28 29 30 31 32 33 34 35 36 37 38 39 40 41 42 43 44 45 46 47 48 49 50
144
ASUS43 KDTX 200710
RWRMI
MICHIGAN HOURLY REGIONAL WEATHER ROUNDUP
NATIONAL WEATHER SERVICE DETROIT/PONTIAC MI
300 AM EDT FRI APR 20 2018

NOTE: "FAIR" INDICATES FEW OR NO CLOUDS BELOW 12,000 FEET WITH NO
SIGNIFICANT WEATHER AND/OR OBSTRUCTION TO VISIBILITY.

MIZ047>049-052>055-059>063-066>070-074>076-081>083-200800-
SOUTHEAST LOWER MICHIGAN

CITY           SKY/WX    TMP DP  RH WIND       PRES   REMARKS
ADRIAN         FAIR      35  20  54 N5        30.38S WCI  31
ALMA           FAIR      33  19  54 NW6       30.39S WCI  28
ANN ARBOR      FAIR      34  20  56 W8        30.36R WCI  27
BAD AXE        FAIR      33  22  63 NW5       30.35R WCI  28
CARO           FAIR      33  24  68 NW5       30.35S WCI  29
DETROIT CITY   FAIR      36  24  62 NW5       30.35S WCI  32
DETROIT        FAIR      34  23  64 NW5       30.36S WCI  30
FLINT          FAIR      32  22  66 NW8       30.37R WCI  25
GROSSE ILE     FAIR      32  29  87 CALM      30.35S
HILLSDALE      FAIR      32  19  59 N6        30.37S WCI  26
HOWELL         FAIR      31  21  66 NW6       30.37R WCI  25

CITY           SKY/WX    TMP DP  RH WIND       PRES   REMARKS
JACKSON        FAIR      35  20  54 W5        30.38S WCI  31
LAMBERTVILLE   FAIR      33  29  86 CALM      30.37S
LANSING        FAIR      32  19  58 NW7       30.40R WCI  26
LAPEER         FAIR      32  22  65 NW5       30.35R WCI  28
MASON          FAIR      34  15  45 NW5       30.39S WCI  30
MONROE         FAIR      31  29  94 W3        30.36S
MT. CLEMENS    FAIR      35  23  60 W7          N/A  WCI  29
PONTIAC        FAIR      34  21  59 NW7       30.34R WCI  28
PORT HOPE        N/A     36  28  73 NW8       30.32S WCI  30
PORT HURON     FAIR      32  21  64 NW5       30.33R WCI  27
TRI CITIES     FAIR      34  20  56 NW10      30.37S WCI  26
MIDLAND        FAIR      31  20  62 NW5       30.38R WCI  27
TROY           FAIR      38  20  48 NW8       30.36S WCI  32
SAGINAW HB     FAIR      32  21  64 NW6       30.37R WCI  26
$$
MIZ043>046-050>051-056>058-064>065-071>073-077>080-200800-
SOUTHWEST LOWER MICHIGAN

CITY           SKY/WX    TMP DP  RH WIND       PRES   REMARKS
BATTLE CREEK   FAIR      30  20  66 NW6       30.40S WCI  24
BENTON HARBOR  FAIR      28  25  88 E3        30.43S
BIG RAPIDS     FAIR      28  20  72 CALM      30.39S
COLDWATER      FAIR      33  20  59 NW3       30.39S
FREMONT        FAIR      31  19  61 CALM      30.41S
HOLLAND        FAIR      29  24  82 CALM      30.43S
GRAND RAPIDS   FAIR      35  19  52 NW6       30.41S WCI  30
IONIA          FAIR      34  17  48 NW6       30.39S WCI  29
KALAMAZOO      FAIR      33  17  51 NW7       30.41R WCI  27
LUDINGTON      FAIR      26  25  95 CALM      30.41F
MARSHALL       FAIR      32  16  53 CALM      30.39S
MOUNT PLEASANT FAIR      35  18  49 CALM      30.38S
MUSKEGON       FAIR      27  20  75 CALM      30.43S
SOUTH HAVEN    FAIR      27  25  92 CALM      30.43S
$$
MIZ016>042-200800-
NORTHERN LOWER MICHIGAN

CITY           SKY/WX    TMP DP  RH WIND       PRES   REMARKS
ALPENA         FAIR      31  20  63 W5        30.36R WCI  26
BEAVER ISLAND  FAIR      27  22  82 CALM      30.40S
BELLAIRE       FAIR      23  21  93 CALM      30.42S
CADILLAC       FAIR      29  13  52 NW3       30.37S
CHARLEVOIX     FAIR      27  21  79 CALM      30.43S
FRANKFORT      FAIR      27  23  84 CALM      30.42S
GAYLORD        FAIR      27  17  66 CALM      30.36S
GRAYLING       FAIR      23  20  88 CALM      30.36S
HARBOR SPRINGS FAIR      29  24  82 CALM      30.39S
HOUGHTON LAKE  FAIR      30  15  53 NW6       30.37S WCI  24
MANISTEE       FAIR      23  21  92 CALM      30.42S
OSCODA         FAIR      31  17  56 NW6       30.35R WCI  25
PELLSTON       FAIR      28  19  69 CALM      30.40R
ROGERS CITY    FAIR      32  24  73 NW6       30.38R WCI  26
TRAVERSE CITY  FAIR      27  21  78 CALM      30.40S
$$
MIZ007>008-015-200800-
EASTERN UPPER MICHIGAN

CITY           SKY/WX    TMP DP  RH WIND       PRES   REMARKS
KINROSS        FAIR      29  25  85 NW7       30.37S WCI  22
MACKINAC ISLAN FAIR      30  21  69 NW6       30.38S WCI  24
NEWBERRY       FAIR      31  20  62 NW5       30.38S WCI  27
S. S. MARIE    FAIR      31  26  82 W8        30.37R WCI  23
MUNISING         N/A     26  19  74 S6        30.39S WCI  19
$$
MIZ004>006-011>014-085-200800-
CENTRAL UPPER MICHIGAN

CITY           SKY/WX    TMP DP  RH WIND       PRES   REMARKS
MANISTIQUE     FAIR      30  12  46 NW5       30.39R WCI  26
ESCANABA       FAIR      25  18  74 CALM      30.41S
MENOMINEE      FAIR      24  20  84 CALM      30.43
SAWYER-GWINN   FAIR      26   9  49 NW3       30.39S
$$
MIZ001>003-009>011-084-200800-
WESTERN UPPER MICHIGAN

CITY           SKY/WX    TMP DP  RH WIND       PRES   REMARKS
IRON MOUNTAIN  FAIR      24  15  68 CALM      30.39S
HOUGHTON       FAIR      37   6  27 NW8       30.37S WCI  31
COPPER HARBOR    N/A     34  10  37 W3        30.37S
IRONWOOD       FAIR      23  17  78 CALM      30.41R
$$

ABBREVIATIONS USED IN REMARKS
   TC - TEMPERATURE IN CELSIUS
  WCI - WIND CHILL INDEX
   HX - HEAT INDEX
  VSB - VISIBILITY





USA.gov is the U.S. government's official web portal to all federal, state and local government web resources and services.